Theta_e
354 357 359 359 362 358 358 361 360 359 358 360 359 360 359 361 359 363 365 362 361 363 361 363 364 362 360 363 359 364 369 366 366 371 370 370 370 374 374 373 370 370 371 367 361 365 374 368 369 368 374 368 367 360 358 360 364 369 370 365 363 370 368 362 359 356 361 366 363 358 356 359 353 359 361 362 363 363 361 363 368 362 359 357 357
355 357 358 356 354 357 357 358 359 360 357 360 360 357 358 361 363 361 358 364 362 358 360 361 363 363 359 359 364 363 366 370 361 364 367 368 366 361 364 371 371 369 371 370 370 362 368 370 368 365 369 364 361 356 355 351 351 354 363 363 371 367 378 363 360 361 354 362 362 365 360 359 354 367 362 363 360 364 361 360 358 359 358 357 354
355 360 357 356 357 355 356 358 358 359 357 358 355 356 359 358 360 360 357 358 363 361 357 357 365 366 363 367 369 366 371 364 365 367 367 368 366 361 358 365 366 363 362 365 362 366 365 367 362 362 358 357 359 356 355 356 356 358 356 362 358 358 361 368 365 359 357 357 364 358 359 365 362 360 364 362 365 365 365 364 355 353 354 355 355
359 359 359 357 352 354 355 355 354 354 354 356 356 356 357 357 360 358 359 357 357 361 360 359 365 368 364 367 367 367 366 364 362 363 368 367 366 367 366 363 365 364 363 362 361 362 362 365 360 359 359 364 364 368 364 360 361 365 367 367 367 364 368 368 370 365 362 357 362 361 363 362 364 363 362 364 360 361 358 356 359 357 355 356 354
361 360 358 358 353 352 352 352 352 352 352 353 356 356 357 357 359 358 357 358 357 357 364 365 368 369 358 362 365 367 367 366 366 360 360 364 365 362 366 367 365 367 366 369 365 369 366 364 363 366 365 362 364 360 359 362 359 366 364 368 364 364 364 374 369 366 362 359 360 364 368 365 364 363 365 359 362 361 365 365 360 357 360 358 354
362 361 358 357 360 354 351 350 350 351 351 351 350 352 354 354 356 357 357 356 359 357 358 360 363 367 365 363 366 368 369 370 370 367 359 360 363 363 364 366 363 364 363 361 363 363 361 363 362 364 359 359 358 367 371 369 364 362 360 360 366 370 377 369 367 366 364 361 361 361 365 363 359 360 366 365 358 354 355 357 358 358 360 358 354
363 364 361 360 361 360 352 350 351 349 350 350 349 350 351 352 354 356 355 356 354 355 356 361 365 365 367 364 363 370 370 366 372 370 367 367 364 367 360 364 365 363 363 361 361 359 360 360 362 366 365 360 357 359 364 363 353 363 364 366 367 364 361 360 363 364 363 361 360 361 360 361 363 354 360 360 357 353 349 353 355 359 359 360 360
365 365 363 363 363 361 364 363 357 359 357 360 357 349 348 351 352 354 359 357 352 352 355 358 355 360 362 360 364 367 369 368 371 373 371 366 365 365 365 364 362 361 359 363 360 356 357 356 354 355 358 361 361 362 364 361 367 363 368 368 372 369 366 363 362 361 359 355 355 353 357 356 358 358 359 360 359 357 358 352 347 349 354 369 371
360 358 362 364 365 364 365 367 367 365 371 368 356 355 352 354 356 356 355 354 350 350 355 353 355 358 359 361 365 361 362 365 366 367 369 370 369 362 363 361 361 361 360 357 356 358 357 354 351 349 360 367 364 368 370 369 362 365 368 368 368 364 361 360 358 359 359 358 356 359 356 355 356 355 353 354 355 356 354 356 355 358 356 352 358
347 351 352 352 356 362 368 367 366 368 365 365 364 366 354 354 350 351 354 354 360 363 364 355 351 355 355 358 360 359 357 360 366 366 367 367 367 364 362 363 364 361 361 363 357 354 352 351 351 359 359 356 361 374 365 364 365 359 370 369 370 367 366 364 363 361 359 358 356 354 351 349 348 348 349 349 347 350 351 354 351 353 354 355 357
345 352 352 353 347 344 351 360 365 365 365 362 362 361 358 354 357 361 355 354 364 370 363 358 349 347 349 355 355 356 353 353 350 345 349 359 366 366 364 364 362 360 360 365 363 359 357 355 352 360 375 374 371 371 364 362 366 365 363 364 366 365 360 357 357 358 358 356 355 353 349 349 351 353 351 347 350 354 354 357 356 355 354 352 349
351 351 348 347 345 344 342 341 345 349 347 352 353 350 353 357 353 350 348 348 351 354 353 355 357 354 351 349 346 350 344 334 331 334 339 341 356 366 360 359 357 358 359 360 361 358 355 354 353 352 351 365 364 370 368 367 364 365 362 360 360 360 359 358 357 356 356 354 354 354 353 352 354 354 351 351 357 356 358 358 357 357 355 354 353
347 347 348 350 345 344 345 343 347 351 348 350 356 357 358 358 352 351 352 355 356 356 357 356 356 356 356 355 352 351 344 330 329 331 333 334 338 355 357 356 350 350 354 361 359 359 359 364 358 356 359 368 363 366 371 372 369 359 359 360 361 357 345 343 347 357 357 355 353 351 352 353 354 357 360 360 364 357 357 356 358 359 359 356 355
347 345 345 345 345 345 345 344 345 346 349 354 356 356 355 352 352 354 354 354 352 353 355 355 356 356 355 356 354 344 338 325 324 326 328 330 334 345 355 354 355 353 355 354 351 355 360 358 356 355 359 354 350 354 360 368 367 365 364 365 364 366 362 348 344 343 349 354 353 352 357 362 359 362 365 366 362 360 357 353 355 353 353 353 356
346 345 345 345 345 346 348 348 346 346 345 345 349 349 350 352 350 350 352 354 354 353 354 354 354 353 354 354 349 341 331 320 321 322 323 326 331 349 357 355 355 355 354 356 356 357 360 360 357 357 358 351 348 350 350 354 364 364 365 362 361 362 363 363 364 363 360 356 355 354 355 358 361 364 367 364 361 360 360 359 358 357 358 360 358
344 345 345 346 346 347 348 351 351 350 344 342 344 347 348 352 350 352 351 351 352 354 355 354 353 352 354 355 348 340 331 318 318 318 320 322 332 356 359 362 358 356 358 359 360 360 361 360 360 359 352 347 338 331 339 353 358 360 361 359 359 358 357 365 341 349 361 360 363 362 360 358 343 352 356 354 357 361 358 357 358 358 356 354 352
340 341 342 344 346 349 350 350 350 350 349 344 345 348 349 351 352 354 350 349 348 348 350 351 352 350 350 352 348 339 333 321 316 315 317 319 337 354 358 359 360 358 361 358 358 358 356 355 354 353 350 343 330 321 328 350 356 355 356 354 355 355 355 356 350 347 343 339 336 336 333 329 330 331 329 328 339 343 355 355 354 356 352 349 349
339 340 341 342 345 346 346 347 346 347 347 347 347 348 350 350 349 350 348 348 346 345 346 349 349 347 347 347 345 339 334 325 314 314 315 317 332 350 358 357 357 359 357 357 357 356 354 356 350 344 342 338 322 320 323 343 352 353 353 352 352 351 354 356 355 356 347 345 344 342 340 337 332 333 342 340 336 346 354 351 353 353 350 350 347
338 339 341 342 344 344 343 343 344 344 344 344 345 345 345 346 347 347 347 347 346 347 347 347 347 347 347 345 345 341 336 330 316 313 314 315 328 346 357 356 354 355 355 355 355 355 348 347 347 339 337 329 317 318 321 335 344 347 350 349 349 350 352 348 348 350 354 355 357 360 360 361 368 363 363 354 352 359 356 353 353 353 348 347 347
339 340 341 341 342 342 342 342 342 342 340 342 344 345 346 345 345 344 345 346 345 345 346 345 343 342 343 344 342 341 337 333 324 312 312 314 319 343 345 342 346 350 351 350 349 350 354 347 338 324 321 319 316 314 315 318 334 341 344 347 348 346 344 343 347 348 350 351 353 356 358 359 358 358 358 357 358 361 359 355 355 356 349 347 348
337 337 338 337 337 337 337 337 337 339 340 339 339 340 343 342 343 342 341 341 342 344 344 344 341 339 341 341 339 338 338 333 329 313 312 313 316 328 336 334 334 345 347 350 349 345 344 348 338 329 317 316 314 311 310 314 323 336 345 345 343 340 334 342 346 350 348 352 354 356 356 352 351 353 356 354 354 356 356 357 356 357 357 352 349
338 337 337 336 333 333 336 338 336 335 339 341 338 337 339 339 338 337 337 337 336 336 337 339 340 341 341 341 337 334 334 334 331 320 314 313 313 318 328 329 329 341 351 348 348 348 347 345 338 331 316 314 311 309 309 312 318 333 348 320 314 318 335 341 344 347 350 351 351 352 353 352 350 352 355 355 354 355 359 352 357 363 361 357 354
337 338 338 337 338 338 337 335 335 338 340 342 342 341 341 340 338 338 335 335 336 334 335 335 336 336 336 336 335 334 334 334 332 330 318 313 313 314 316 324 321 334 332 330 336 334 334 335 335 331 313 308 306 308 310 310 323 339 316 312 315 318 329 339 345 351 347 346 347 348 349 353 351 349 356 352 349 347 347 348 350 354 356 356 357
336 336 336 336 337 337 338 335 336 337 338 340 341 340 340 340 341 340 339 339 336 334 335 336 335 335 334 333 333 333 332 333 333 332 327 317 313 313 314 315 317 327 332 326 328 328 329 329 332 314 307 304 306 309 311 317 329 317 310 313 318 328 336 340 345 342 343 343 343 340 339 341 340 339 340 341 341 345 348 347 346 348 347 349 351
332 333 333 334 334 334 334 338 338 338 337 338 336 336 336 336 336 338 337 336 336 335 338 338 338 337 336 335 334 333 333 332 331 333 332 329 320 318 318 319 321 320 332 332 331 330 325 315 310 309 310 309 309 312 319 323 315 311 312 316 335 339 347 342 340 340 342 338 332 331 331 332 335 337 340 343 346 347 345 344 345 345 346 344 343
331 331 331 332 333 331 331 331 335 338 338 339 336 338 336 336 335 333 335 332 335 335 336 334 333 331 332 336 336 335 335 334 334 333 335 333 330 323 322 325 332 333 335 329 328 322 320 315 313 314 319 324 334 336 337 345 335 328 325 331 336 333 334 333 336 337 330 328 327 328 328 331 332 335 340 341 338 339 342 340 337 337 336 336 336
330 331 331 329 331 332 331 330 331 335 331 332 334 337 340 334 335 336 336 332 334 335 332 330 335 333 334 333 337 338 334 333 331 329 329 327 327 328 327 326 328 329 327 323 322 322 327 334 333 324 320 321 322 324 327 330 335 339 337 328 326 330 331 331 334 330 329 326 327 328 330 331 333 333 331 332 335 336 334 333 330 329 331 333 333
326 327 327 329 332 331 330 330 331 327 331 331 328 328 331 331 328 327 328 329 327 328 331 330 330 330 334 331 334 334 323 322 321 321 321 323 324 323 323 323 322 323 322 316 314 320 327 333 331 339 339 339 338 338 337 333 338 331 333 328 327 334 330 330 334 330 328 328 328 330 331 331 327 327 329 328 329 330 331 329 329 329 331 329 328
328 327 327 328 329 329 330 328 330 326 328 328 324 323 326 330 327 324 323 325 326 326 326 325 326 328 326 326 329 325 323 320 318 306 311 307 315 319 320 318 316 318 317 306 312 321 327 333 336 338 333 326 329 327 326 325 329 329 325 326 327 329 328 329 327 325 325 325 326 328 327 325 326 327 327 326 327 326 328 327 330 329 329 329 327
327 326 326 325 323 325 328 329 331 331 324 326 325 322 313 303 314 328 322 312 306 306 313 323 324 329 326 320 320 326 322 319 304 297 296 296 297 297 298 296 297 303 303 304 314 322 329 331 331 330 330 327 325 327 323 322 325 324 325 325 327 325 325 326 323 321 322 324 326 325 323 324 324 325 324 324 323 324 325 325 327 327 326 324 322
328 326 327 326 327 328 325 324 329 332 331 330 328 326 322 320 298 300 310 308 302 295 296 298 302 310 328 321 312 304 305 300 295 295 295 295 294 294 295 295 295 295 298 309 318 323 327 327 327 328 327 323 323 322 325 323 324 324 323 323 324 325 324 324 322 321 322 323 323 323 323 322 321 322 321 321 321 322 324 325 325 326 323 322 321
330 328 325 326 330 329 328 328 325 327 330 330 330 330 327 327 325 303 297 303 302 296 295 294 295 299 305 316 322 314 302 296 295 295 295 295 294 293 293 294 295 295 295 301 317 324 327 327 328 328 327 324 324 325 323 322 324 323 323 322 322 323 322 322 322 323 323 322 320 320 320 320 320 320 319 320 320 321 321 322 322 321 321 321 322
327 325 325 325 326 326 327 327 328 330 327 325 325 325 327 327 324 324 320 297 296 298 298 297 296 296 297 297 300 307 305 298 294 294 295 294 294 294 292 294 296 296 301 317 322 324 326 326 325 325 323 323 322 323 322 322 323 322 321 321 321 321 323 325 324 325 322 321 319 318 318 319 319 319 319 319 319 319 319 319 320 319 320 318 319
325 325 325 326 327 327 326 327 327 328 329 328 328 326 323 325 327 324 323 322 322 308 298 296 295 296 295 294 296 295 294 295 296 297 295 296 294 294 295 302 298 297 302 317 319 322 324 325 324 324 323 324 323 323 322 322 323 323 322 322 321 323 325 323 322 322 319 318 317 317 318 318 318 318 318 318 318 318 318 317 317 317 316 316 315
325 326 326 327 325 325 326 326 326 326 329 327 328 322 324 329 325 325 325 324 322 321 322 320 303 295 308 303 295 294 295 295 296 296 296 296 296 295 295 315 321 325 312 314 319 321 323 326 327 326 329 327 327 326 324 322 322 322 320 320 320 321 320 319 319 321 318 317 318 319 318 318 318 318 317 316 316 315 315 316 316 315 315 315 315
318 318 319 322 326 326 326 329 328 327 325 324 324 323 324 324 323 322 320 323 324 325 325 324 323 312 302 301 294 294 294 295 295 294 294 294 294 296 317 318 319 320 321 325 322 324 327 327 326 327 326 325 325 326 324 321 321 320 321 319 319 319 318 318 317 317 319 319 318 318 316 317 317 316 316 315 315 314 314 314 314 314 313 312 312
322 318 316 320 324 326 326 325 325 325 323 322 322 323 322 323 322 321 323 324 325 328 328 325 325 320 315 320 304 296 294 294 293 294 295 296 293 308 316 318 318 319 320 322 324 326 327 328 328 324 324 327 326 323 322 320 320 320 320 321 320 319 317 318 317 319 320 316 316 318 317 315 315 315 314 312 312 312 312 313 311 311 311 311 311
325 324 322 322 323 322 320 322 320 319 320 316 318 319 319 321 322 322 321 323 324 323 323 325 324 321 318 320 322 319 315 303 299 302 295 295 304 313 316 316 319 320 320 323 326 330 328 326 326 325 324 321 320 318 317 317 317 316 316 317 317 318 318 317 319 320 318 316 315 315 314 313 314 313 312 311 310 310 309 309 308 308 308 310 309
323 317 316 317 318 320 319 317 320 316 316 316 317 319 319 319 318 319 322 321 320 319 320 320 319 319 324 324 322 322 321 319 316 316 316 317 320 319 319 320 322 323 322 320 321 320 318 317 318 319 322 320 320 320 318 316 315 316 317 315 314 314 314 312 313 315 314 313 313 313 313 313 312 311 310 309 308 307 306 306 306 306 306 306 307
321 317 314 313 312 312 313 316 318 318 318 317 318 319 319 318 315 316 316 317 318 320 318 320 321 321 320 319 317 317 315 313 313 313 313 313 314 317 319 320 320 319 321 321 319 319 318 317 318 317 316 317 316 316 316 315 314 314 314 313 312 312 312 312 311 311 311 311 311 311 310 307 307 307 307 306 305 305 304 304 304 304 304 304 305
319 316 313 311 312 314 313 313 314 315 315 317 315 316 316 316 317 317 318 317 318 318 318 319 320 315 311 307 303 308 313 312 312 312 313 313 314 316 319 319 318 317 317 318 318 316 316 316 316 317 316 316 315 315 313 313 313 312 311 311 310 310 310 310 311 310 309 310 309 308 305 304 304 303 303 304 305 304 304 304 303 302 302 302 302
319 316 313 309 309 313 314 313 313 317 317 316 316 314 315 316 316 316 315 314 315 315 316 316 317 312 305 296 296 299 310 312 312 312 312 313 315 317 316 317 318 319 315 314 316 315 314 315 314 314 314 314 313 313 312 312 311 311 310 310 310 309 309 308 309 309 308 307 306 305 304 303 302 302 302 303 302 302 302 302 302 303 303 302 302
321 319 317 315 310 308 311 314 316 316 315 313 312 312 314 315 316 317 316 317 315 314 315 315 315 313 310 303 303 301 314 312 311 312 312 314 315 314 314 313 313 315 315 313 314 314 314 313 313 313 313 313 313 312 311 311 311 310 309 309 309 308 308 306 305 304 304 304 304 305 305 304 302 300 300 300 299 300 299 300 300 300 301 301 300
319 319 318 316 314 312 313 314 315 316 315 315 315 316 315 315 314 314 313 314 314 314 313 313 313 315 313 308 308 312 313 312 312 311 312 311 312 311 311 312 312 312 312 312 312 313 312 311 311 311 312 311 311 312 311 310 310 308 308 308 307 306 303 303 303 303 302 302 302 302 302 302 303 302 301 301 300 299 299 299 300 300 300 300 300
318 317 315 314 315 314 314 318 315 315 315 315 315 315 315 312 310 311 312 312 314 313 312 311 311 311 311 313 313 312 311 311 310 310 310 309 309 309 309 310 311 313 310 310 311 312 311 310 310 310 310 310 310 310 309 309 310 309 308 307 304 301 301 302 302 302 302 301 300 300 300 299 299 299 299 299 300 299 298 298 298 300 299 299 299
316 315 314 314 313 314 314 314 314 314 314 313 312 311 311 311 311 312 311 311 312 311 311 311 311 311 310 310 310 309 309 309 309 308 309 308 308 308 310 309 309 309 309 309 309 310 309 309 308 308 307 308 308 307 307 308 308 308 308 304 302 301 301 301 302 302 301 300 299 298 298 299 298 299 300 299 298 298 298 298 298 298 298 298 299
316 315 314 313 312 313 314 315 314 313 313 312 312 311 311 312 313 313 313 312 311 309 309 309 309 308 309 309 309 309 308 308 307 307 308 308 309 308 308 308 307 307 307 307 307 307 308 308 308 307 307 306 307 307 306 306 306 307 306 301 300 299 298 299 301 301 299 299 299 298 298 297 297 297 298 298 297 297 297 297 298 298 298 299 298
315 314 314 314 313 312 312 313 313 313 312 311 311 311 311 311 311 311 311 310 308 308 307 307 307 308 308 308 308 307 307 306 306 306 306 306 306 306 307 307 306 305 306 305 306 306 306 306 306 306 306 306 306 305 306 306 306 306 303 298 298 297 296 297 300 299 298 298 298 298 297 296 296 296 297 297 296 297 296 296 297 298 298 298 299
314 313 313 312 311 311 311 310 311 310 309 309 309 309 309 308 309 309 309 308 308 307 307 306 307 307 306 306 306 305 305 305 305 304 304 304 305 305 305 305 305 304 304 303 304 304 305 305 305 304 304 305 305 304 304 304 304 304 301 297 297 295 292 294 297 297 295 298 298 297 297 297 296 296 297 296 296 296 296 297 297 297 297 298 298
313 313 311 310 310 310 311 310 309 309 309 307 307 308 307 307 306 307 308 307 306 306 306 306 306 306 305 305 304 304 304 303 303 303 303 303 303 303 303 303 303 303 302 302 302 303 303 304 304 304 304 304 304 304 303 303 304 301 298 296 293 291 291 291 291 292 295 296 296 296 296 296 296 296 296 296 296 296 296 296 297 297 297 296 297
313 311 311 310 310 310 310 309 308 308 308 309 308 308 307 307 307 307 306 306 305 305 305 305 305 305 305 305 304 303 303 303 303 303 303 302 302 302 302 302 301 302 302 302 302 302 303 303 302 302 303 303 303 302 303 303 302 299 297 293 290 287 287 291 294 288 289 291 295 296 296 296 296 295 296 296 296 295 297 297 296 296 296 296 296
Wind_Speed
13 10 9 8 9 10 10 8 9 8 10 7 7 7 7 5 7 5 3 6 6 7 6 5 5 6 7 6 7 5 4 4 4 3 4 4 3 2 2 2 2 3 3 3 4 3 2 2 1 1 2 2 2 4 3 2 3 2 2 4 5 3 2 3 2 4 3 3 3 5 6 5 6 4 4 3 4 4 4 4 4 5 7 8 6
11 9 9 9 9 10 10 9 8 7 9 10 8 7 6 6 4 5 6 3 5 7 6 6 5 5 6 6 5 4 6 4 6 4 4 4 4 5 5 3 2 3 2 2 2 4 2 3 3 3 3 5 4 5 4 4 3 4 4 1 2 1 1 3 3 2 3 3 5 3 5 6 6 3 5 4 4 4 5 5 5 5 4 4 6
10 8 7 8 9 9 9 9 8 7 8 7 9 7 6 7 7 8 9 8 5 5 7 8 5 4 5 3 2 3 3 5 4 3 4 5 5 6 4 4 5 4 4 4 4 3 3 3 4 5 5 5 6 5 4 3 3 3 2 4 4 4 5 3 2 3 4 4 3 5 4 3 4 4 4 5 4 5 5 4 4 6 5 5 5
8 9 7 9 11 10 9 9 11 11 10 7 8 8 7 8 5 6 7 7 7 7 6 6 6 5 4 5 5 5 5 4 5 5 4 5 5 5 3 1 3 4 3 4 5 4 3 3 4 5 3 3 1 2 3 3 3 2 1 2 2 2 2 2 2 1 2 4 3 4 3 4 4 5 6 3 4 4 5 5 4 4 6 7 7
6 9 8 7 10 9 10 10 10 11 10 9 11 10 9 6 6 7 6 6 6 7 4 3 3 4 6 5 5 4 4 4 4 6 5 4 4 5 3 4 5 4 5 3 4 3 3 3 4 3 3 3 2 3 3 4 4 1 1 2 4 4 3 2 2 4 4 4 4 3 3 4 5 6 5 4 4 4 4 3 3 4 5 5 7
6 8 8 7 5 8 9 9 9 10 10 9 10 10 7 8 7 7 7 5 3 4 4 5 4 5 5 5 5 4 4 4 3 4 5 5 4 4 4 4 4 4 4 4 5 4 4 4 4 3 4 4 3 2 2 2 2 3 5 5 2 1 0 2 3 4 4 5 4 5 4 6 6 4 3 3 5 5 4 5 5 5 5 5 4
6 6 7 6 5 5 7 8 7 9 8 8 8 7 9 10 9 8 7 6 7 6 4 3 3 5 5 4 5 4 3 5 4 4 4 4 3 3 4 4 4 4 5 6 5 5 5 4 4 2 2 5 5 3 3 3 4 2 3 3 2 3 5 5 4 3 4 4 4 5 5 3 2 4 4 4 6 6 7 5 5 5 5 4 4
5 5 5 4 5 5 4 3 5 4 4 4 4 6 6 6 7 7 3 3 5 6 8 2 3 6 5 5 3 1 5 4 3 2 3 4 4 3 2 4 5 5 6 5 5 6 6 7 8 7 6 5 5 3 3 3 2 2 2 2 1 2 2 3 3 3 4 4 4 5 4 4 4 4 6 4 4 5 4 6 7 4 4 2 2
10 7 3 3 3 4 4 3 2 3 2 3 4 4 4 4 4 4 6 7 8 8 9 9 5 3 1 3 2 5 5 5 2 2 3 4 3 4 2 5 5 6 6 7 7 6 5 6 7 7 4 7 10 8 4 5 3 1 2 2 2 3 3 3 4 5 5 4 5 4 5 5 5 6 6 5 4 4 3 2 3 3 3 5 4
9 7 6 10 11 5 3 3 2 1 2 2 1 3 5 4 4 4 3 4 3 2 3 7 9 8 6 5 4 3 2 2 3 8 9 5 5 4 1 1 3 5 6 3 6 6 7 7 7 9 2 7 9 9 7 6 5 3 1 1 2 2 3 3 4 4 4 5 5 5 5 5 5 4 4 5 6 5 4 5 7 6 7 6 6
8 3 4 6 4 10 15 7 3 2 5 9 10 7 6 3 5 8 6 6 4 3 3 2 3 4 8 9 6 8 4 4 15 12 12 11 7 4 3 3 1 4 7 4 3 5 5 6 6 4 6 5 6 9 9 8 6 5 5 5 3 3 4 5 5 4 4 4 4 5 5 5 5 4 5 6 4 4 5 5 6 7 5 6 8
5 6 6 5 6 5 3 11 14 9 7 5 4 4 6 9 9 9 8 9 11 13 9 7 8 9 7 8 4 8 7 10 11 14 11 9 8 3 4 5 5 6 8 5 4 3 5 6 5 8 6 9 7 3 6 7 5 5 6 8 8 8 6 5 5 6 5 5 5 5 5 5 5 4 6 5 4 5 4 5 5 5 7 6 6
7 7 7 6 6 1 1 6 4 4 6 6 2 1 3 5 7 7 6 6 7 7 6 7 8 8 8 8 8 7 8 12 12 12 11 11 10 9 5 4 5 6 5 3 4 5 6 3 4 7 8 16 12 10 4 0 4 6 4 4 6 8 10 10 9 8 7 8 8 8 7 6 6 5 4 4 3 6 5 4 4 5 5 7 7
6 8 8 7 6 3 4 3 4 5 4 4 6 7 6 7 7 6 4 2 2 3 5 5 4 5 5 5 6 9 8 11 12 12 11 11 10 7 4 5 5 6 5 7 8 6 9 7 5 3 3 8 7 9 9 5 2 2 1 2 3 6 8 12 14 14 11 8 8 9 8 5 6 4 5 5 5 4 5 6 5 6 7 8 8
8 8 8 8 8 6 2 2 4 5 5 6 8 6 5 5 4 3 2 2 2 4 5 5 5 5 5 4 7 8 7 13 13 13 12 11 11 6 4 4 5 4 6 5 6 5 4 5 4 3 4 6 5 8 7 8 5 2 1 3 4 5 6 6 6 6 5 5 7 8 9 9 7 5 3 4 4 4 4 5 5 5 7 7 8
8 8 7 7 7 7 4 3 5 6 7 4 5 4 2 5 4 3 4 2 4 4 3 4 4 3 4 5 6 8 8 13 13 13 13 13 11 5 4 3 3 4 2 7 6 5 5 6 5 5 6 6 9 11 9 7 6 5 5 5 5 6 7 5 6 3 3 2 2 4 5 5 3 5 4 4 4 4 5 5 5 5 6 7 8
8 8 7 5 4 4 6 6 6 7 8 8 5 3 3 6 6 5 6 6 6 7 6 6 6 5 5 5 6 8 8 11 13 13 13 14 8 5 5 4 4 4 4 6 6 7 7 6 6 6 6 6 8 11 12 11 5 6 6 7 7 7 7 7 4 4 1 3 5 7 9 9 9 8 8 6 3 2 4 5 6 5 6 7 7
7 8 8 7 4 4 5 5 5 5 5 6 6 5 5 6 6 5 6 6 6 7 7 7 7 6 8 9 9 8 7 8 11 11 12 13 9 5 4 4 4 3 3 3 5 5 9 14 10 7 6 5 8 10 12 9 5 6 6 7 7 6 5 6 6 7 10 10 10 10 8 9 7 5 3 6 7 2 3 5 8 7 7 6 7
7 8 9 10 8 6 6 7 8 8 8 8 6 7 7 6 6 6 7 7 7 6 5 6 8 7 6 6 9 8 6 8 11 11 12 12 9 4 4 4 4 4 3 3 5 4 5 8 13 8 6 5 7 7 10 8 5 6 6 6 7 7 6 8 8 9 8 8 7 7 6 5 4 5 5 8 13 8 5 5 7 7 7 7 7
8 8 9 8 9 7 7 8 9 8 8 8 7 6 5 6 6 6 7 6 6 5 5 6 7 6 7 6 6 6 6 6 8 11 13 14 13 7 7 6 5 5 5 4 4 3 3 4 7 8 8 8 8 8 7 7 5 6 6 6 6 6 7 8 8 9 8 8 7 6 4 5 5 5 6 7 5 5 5 4 4 4 4 5 6
7 7 7 8 8 7 8 9 10 8 7 7 8 7 5 5 5 6 7 7 6 4 4 4 7 5 6 7 5 5 5 5 6 9 11 13 14 10 5 6 5 4 3 2 1 3 2 4 5 7 9 8 8 9 7 6 4 4 5 4 4 6 6 6 8 12 8 7 6 5 5 4 5 6 4 5 4 4 4 6 6 6 4 5 6
6 7 8 7 7 8 8 8 8 7 6 6 8 7 5 5 4 5 4 5 6 5 3 5 5 5 6 6 5 4 5 7 4 6 9 11 12 12 7 6 6 3 1 2 4 3 4 5 4 5 8 7 8 7 9 7 5 4 5 5 9 9 6 6 6 7 6 6 6 5 3 3 3 2 2 1 2 4 5 6 6 5 4 4 5
6 6 6 6 7 7 7 8 6 5 6 6 6 6 5 4 3 3 4 3 4 5 4 3 4 4 5 4 4 3 2 1 2 4 6 10 11 11 11 8 12 8 6 6 5 5 4 3 2 6 7 8 8 9 8 9 7 4 6 10 9 9 6 4 6 4 5 5 6 5 6 5 4 5 4 5 5 6 7 7 7 6 4 5 5
5 5 5 5 5 5 6 8 7 5 4 4 4 5 5 4 4 3 3 3 3 3 3 3 4 5 5 5 4 3 2 1 1 4 6 8 10 11 11 12 11 8 6 5 4 4 4 3 5 9 10 10 9 9 9 7 6 10 11 11 11 9 5 5 3 6 5 5 5 6 6 6 6 6 6 6 6 6 7 7 6 7 7 6 6
5 4 4 5 5 4 5 5 6 5 4 3 4 4 4 3 3 2 2 2 3 2 1 2 3 4 4 5 4 4 3 2 1 1 3 5 7 9 11 11 12 13 6 3 6 6 6 8 10 10 9 11 11 10 9 9 11 10 10 11 10 5 2 5 6 5 5 6 7 6 6 6 6 5 6 6 5 5 4 4 5 6 6 7 7
4 5 4 4 4 5 5 5 3 2 3 1 3 3 5 4 4 4 4 4 1 2 2 3 3 4 3 4 5 5 4 3 3 2 2 2 3 7 11 12 14 14 10 8 12 14 13 10 12 12 10 8 6 4 4 3 5 10 12 9 4 4 6 5 5 6 7 6 6 6 6 6 7 7 7 6 6 6 5 7 8 7 8 8 8
4 3 4 4 3 2 4 5 3 2 2 2 1 1 3 3 2 3 5 3 2 3 3 2 2 2 2 1 1 4 5 4 4 4 4 4 5 5 6 8 12 10 7 7 9 8 10 9 8 11 10 13 14 11 9 8 7 5 3 5 5 4 5 5 5 6 5 5 5 5 6 6 6 6 7 7 6 7 8 8 8 8 8 7 8
4 4 4 4 3 4 4 5 4 3 0 6 6 5 6 7 7 6 5 4 5 6 5 4 5 5 3 3 2 4 7 5 6 5 5 4 5 6 6 6 6 6 6 6 7 7 7 8 10 8 5 5 6 5 2 4 2 3 3 4 5 3 7 7 7 6 5 5 5 5 4 5 6 6 6 6 6 7 6 7 7 7 7 8 8
4 4 4 4 4 3 3 2 3 4 4 7 7 5 4 4 7 6 5 3 4 4 5 5 5 5 6 4 4 6 4 4 3 4 3 5 6 5 5 5 5 5 6 9 8 7 6 7 6 3 2 3 3 4 5 6 5 5 7 5 5 4 5 5 7 7 6 6 6 5 5 6 6 5 6 6 6 7 6 6 5 6 7 6 7
4 4 3 3 3 3 2 1 6 6 2 7 6 5 7 8 6 4 4 5 7 6 6 5 2 2 5 4 4 4 4 3 3 2 2 5 8 7 3 3 3 4 10 14 6 5 6 6 6 3 3 4 3 3 5 5 5 5 5 5 5 5 5 5 6 6 6 6 5 6 6 6 6 6 6 6 7 7 7 6 6 6 7 7 8
3 4 4 4 5 2 3 3 3 4 5 4 4 4 5 6 10 11 9 7 6 8 10 7 5 6 5 5 5 10 10 7 4 3 5 7 8 8 9 9 8 5 8 9 7 5 6 6 4 4 4 4 5 5 4 4 4 4 5 5 5 5 4 5 6 6 6 5 5 6 6 6 7 6 7 7 7 7 6 6 6 6 6 8 8
2 4 5 4 3 4 5 4 2 3 3 3 2 2 3 4 3 6 8 8 9 9 7 7 8 9 9 6 6 2 3 3 4 4 4 7 7 6 8 9 10 7 3 0 4 6 6 4 3 3 3 3 4 4 4 4 4 4 4 5 5 4 6 5 5 5 5 5 6 6 6 7 6 6 6 6 6 6 6 6 6 7 7 6 6
5 5 4 3 3 2 3 2 2 1 1 1 1 2 2 4 3 2 3 8 8 8 7 6 6 6 10 9 9 7 6 6 5 4 4 3 3 4 6 9 9 7 4 4 5 6 5 4 4 4 4 5 4 4 4 5 4 4 4 4 4 5 5 5 6 5 4 5 6 6 6 6 6 6 6 6 6 6 6 6 6 6 6 7 7
4 3 3 4 3 2 3 2 2 2 1 3 3 2 3 3 2 5 4 3 1 2 3 3 3 5 6 6 8 8 7 7 5 4 2 1 2 2 2 7 12 12 5 5 5 4 5 2 2 3 3 3 3 3 3 3 3 4 4 5 5 4 5 5 5 5 5 6 6 6 5 5 6 6 6 6 6 7 7 6 6 6 6 7 8
4 4 7 3 3 3 3 2 2 2 1 1 1 2 2 1 2 2 3 5 5 4 4 3 3 5 1 2 3 6 7 6 5 6 6 7 5 3 2 5 7 4 2 4 6 5 6 2 2 2 1 2 2 2 3 3 3 4 4 4 4 4 5 5 4 5 5 5 5 5 5 6 5 5 6 7 7 7 7 7 7 7 7 7 8
4 4 3 1 1 3 2 3 3 2 2 1 2 3 3 3 2 3 2 3 2 3 5 5 4 5 2 1 7 7 7 7 8 9 6 3 2 1 3 4 5 5 4 3 6 7 4 3 3 2 3 3 3 3 3 4 4 4 3 4 3 4 4 4 4 4 5 4 5 5 5 5 6 6 7 7 8 8 8 8 8 8 9 9 9
5 5 4 2 1 2 3 2 2 2 3 2 3 2 2 2 3 3 3 2 2 2 2 6 4 4 2 4 5 1 5 8 6 3 4 2 1 1 3 4 5 6 6 5 4 3 2 1 1 1 2 2 2 3 4 4 4 4 4 4 5 5 4 4 5 4 3 5 5 4 5 6 7 7 7 8 8 8 9 9 10 10 9 10 10
6 4 4 3 3 3 2 1 3 3 1 2 2 3 3 3 3 3 3 3 2 1 1 5 7 6 6 5 9 6 5 8 6 1 4 3 1 3 4 5 6 5 7 5 3 4 3 2 1 1 2 4 4 5 4 5 5 6 6 6 6 5 7 6 6 5 4 4 5 5 6 6 6 6 5 6 7 7 8 9 9 9 9 10 10
5 6 6 7 3 2 2 3 4 3 2 3 3 3 3 2 2 2 3 3 3 3 3 3 3 3 0 6 6 5 5 2 1 3 4 4 2 3 4 5 6 5 2 4 3 5 6 8 9 9 5 4 4 4 4 4 5 4 5 5 5 5 7 7 7 7 6 6 5 5 5 5 6 8 9 9 8 9 9 9 9 9 10 10 9
5 5 4 2 2 2 1 1 2 2 3 3 3 3 2 2 3 3 3 3 3 2 2 3 2 3 6 5 4 3 3 3 3 3 3 4 4 6 5 4 4 5 4 4 5 5 6 6 6 6 6 7 7 6 5 5 5 5 5 5 5 5 5 5 6 6 7 8 7 7 8 10 9 8 7 7 7 7 8 8 9 9 10 11 11
5 5 6 4 2 2 3 3 3 3 3 3 3 2 3 2 2 2 3 3 2 2 2 2 2 6 4 8 7 6 3 4 4 4 3 3 4 4 3 3 4 5 5 4 5 6 5 5 4 4 4 4 4 4 5 5 5 5 6 6 7 7 7 6 6 6 7 7 8 8 9 8 9 9 8 9 9 8 7 7 7 6 7 9 11
6 6 5 5 4 3 3 3 3 3 2 1 1 2 2 2 3 3 3 3 3 2 2 1 5 5 5 6 8 3 2 2 3 3 3 4 3 3 3 3 3 4 6 7 6 5 5 4 4 5 5 5 6 6 6 6 5 5 5 6 6 7 7 7 7 7 7 7 8 8 6 7 8 8 9 10 9 9 9 10 12 11 10 10 9
6 7 6 6 5 5 4 4 3 4 3 3 3 3 3 2 2 1 2 2 3 3 2 2 2 6 4 4 4 4 2 2 1 2 3 3 2 3 3 3 3 3 4 4 5 5 5 5 5 5 5 6 6 5 5 6 6 6 6 6 6 6 7 7 8 8 7 7 7 7 7 6 5 6 7 9 10 10 11 11 10 10 9 9 9
7 7 7 6 6 5 5 5 5 4 4 4 2 2 3 2 3 3 3 3 2 2 3 3 3 4 5 3 3 4 1 1 1 2 4 4 3 3 3 3 3 4 4 4 5 4 5 5 5 5 5 5 5 6 6 6 6 7 7 6 7 6 7 7 7 7 8 7 8 8 8 8 8 8 8 11 10 11 12 11 11 10 10 10 11
7 7 7 7 7 6 6 4 4 4 4 3 3 3 3 2 3 3 3 4 3 3 3 3 3 3 2 2 2 1 2 2 3 3 2 3 4 4 4 4 4 5 5 4 4 4 5 5 6 6 5 4 4 5 6 6 6 6 6 6 5 6 6 6 6 6 6 7 7 8 8 8 8 8 8 9 10 11 12 11 12 13 12 11 11
7 6 7 7 7 6 6 6 5 4 4 5 4 5 5 4 4 4 4 3 2 2 1 0 1 2 2 2 2 2 2 2 2 1 2 2 3 3 4 4 5 5 5 6 6 5 5 5 5 6 6 6 6 6 6 5 5 5 6 6 6 6 5 5 6 5 6 7 7 7 7 8 8 8 10 10 10 10 10 11 12 12 12 12 12
7 7 7 7 7 6 6 5 6 5 5 5 4 4 4 5 5 5 4 2 2 3 1 2 2 2 2 2 2 1 2 3 3 3 3 4 3 4 4 4 5 5 4 6 7 7 6 5 5 6 6 5 5 5 5 5 5 5 5 6 6 5 5 4 5 5 6 6 6 6 7 7 8 8 10 10 9 10 11 12 12 14 13 13 13
7 7 7 7 7 7 7 5 6 6 5 5 4 4 3 3 3 2 3 3 3 3 3 2 2 2 2 2 2 2 2 3 4 4 4 5 5 5 4 5 5 5 5 5 5 5 5 5 5 5 5 5 5 5 4 4 4 4 4 5 4 3 3 4 4 4 4 4 5 6 7 7 8 8 9 10 10 10 11 11 12 11 12 12 13
9 8 7 7 5 5 5 6 5 5 5 4 4 4 3 3 2 2 3 2 1 2 2 2 2 1 1 1 2 2 1 2 2 3 3 4 4 5 4 5 5 5 5 6 6 5 6 5 5 5 5 5 4 5 5 5 4 4 5 4 3 3 3 4 3 3 4 4 5 6 7 7 9 9 10 10 10 10 11 12 12 12 12 12 13
7 6 6 6 6 5 4 5 6 5 5 5 5 4 4 3 4 3 2 2 2 1 1 1 1 1 1 1 1 1 1 1 2 2 3 3 4 4 4 4 4 5 5 5 5 5 4 4 3 4 4 4 4 4 4 4 3 5 4 3 4 2 1 5 8 7 5 4 5 5 7 8 9 9 9 10 10 11 12 12 12 12 12 13 13
6 6 6 7 6 5 5 6 5 5 4 4 4 3 3 4 3 3 3 3 2 3 3 2 1 1 2 1 0 0 1 1 2 2 2 3 3 3 4 4 4 4 4 4 5 5 4 3 4 4 4 4 4 4 4 3 4 3 5 8 7 5 4 4 3 4 2 4 5 6 7 8 9 10 10 10 10 11 12 14 13 12 12 12 12
Wind_Direction
170 177 180 192 168 180 181 181 191 170 174 191 197 200 190 199 165 205 198 181 178 187 192 202 182 195 195 199 206 191 189 200 194 174 195 201 243 262 60 169 206 222 210 256 277 244 188 239 270 255 275 268 268 265 270 246 240 224 174 195 212 197 181 172 226 269 278 290 300 282 294 314 301 296 305 322 312 303 297 299 296 289 283 275 278
167 176 178 185 180 183 183 182 191 190 186 180 198 196 186 180 183 177 210 207 196 188 194 193 202 195 209 193 188 194 183 216 202 184 195 202 220 218 193 179 213 237 258 260 222 267 260 200 216 245 217 217 238 247 243 282 245 172 208 304 352 307 195 162 229 261 283 297 276 273 290 276 279 331 333 312 294 296 287 283 282 272 277 315 318
165 167 179 176 181 181 188 181 188 204 197 190 202 188 204 192 190 185 196 189 190 213 190 194 175 191 225 210 183 165 198 195 214 205 197 200 213 241 227 185 202 215 219 214 243 233 241 239 230 229 241 226 211 226 252 277 325 337 322 159 215 206 223 215 175 221 253 267 283 292 288 311 316 305 299 291 286 282 287 290 316 324 315 306 306
160 161 177 180 185 182 190 185 189 194 200 203 208 190 200 197 196 211 219 187 191 203 196 197 166 191 203 165 216 187 191 199 205 215 199 206 210 227 229 303 266 244 247 240 216 233 243 244 248 246 248 286 356 341 329 277 274 242 212 330 309 304 294 194 202 230 270 273 264 276 287 294 289 288 277 281 294 304 298 287 281 299 306 301 298
158 158 172 190 182 189 189 197 197 193 197 197 195 208 192 183 198 222 220 213 191 196 188 200 181 177 208 197 202 208 190 208 214 227 216 203 210 229 230 209 218 223 244 263 273 264 230 243 266 270 261 251 255 233 224 232 224 219 307 222 217 221 226 181 202 224 248 268 282 269 289 284 269 261 251 264 268 259 266 271 287 283 280 283 299
161 151 171 186 197 195 190 197 203 200 205 206 201 193 191 200 194 204 217 203 192 217 185 203 199 185 211 209 201 201 209 213 226 239 240 225 198 219 234 237 246 247 248 242 237 238 258 241 237 251 270 260 241 213 230 305 355 220 211 233 242 287 42 266 249 242 240 247 252 272 260 265 268 267 263 258 270 277 274 271 266 264 266 277 272
161 159 167 183 197 215 197 196 202 207 205 213 208 200 188 193 167 217 203 217 198 177 225 209 162 191 217 240 218 210 217 213 224 223 237 242 243 251 247 245 243 242 239 251 259 253 239 260 261 240 235 249 249 246 235 215 232 257 268 274 214 225 235 234 242 246 247 255 251 246 261 260 298 315 290 277 268 263 262 276 278 258 254 251 281
166 161 174 190 182 208 241 201 205 216 203 203 239 215 215 208 193 172 184 244 248 199 169 142 182 213 223 222 201 186 236 236 225 231 269 259 237 219 219 326 293 281 266 261 250 256 246 239 243 227 220 226 233 239 266 283 326 320 304 295 300 300 307 320 311 300 294 288 285 293 290 290 286 264 265 274 280 289 273 258 266 294 306 300 292
16 2 331 215 174 199 230 256 249 206 216 173 200 250 248 218 206 196 177 200 209 220 158 164 228 243 297 294 234 180 235 234 249 248 225 262 263 254 214 213 244 251 241 240 243 236 252 257 261 251 205 200 229 234 205 136 144 247 315 336 328 325 303 292 284 287 284 282 284 279 277 275 270 269 275 266 259 268 280 322 327 320 322 334 318
25 344 348 345 341 316 239 270 272 284 309 258 205 203 246 259 227 211 210 208 235 238 235 166 180 177 209 210 221 217 243 287 213 223 247 222 231 246 251 296 299 300 284 275 282 276 272 273 275 299 351 260 219 200 205 213 201 226 191 343 314 311 313 304 298 294 292 284 282 290 291 286 290 305 322 330 323 323 347 359 345 339 339 315 299
151 170 29 11 29 355 330 308 311 18 15 14 349 346 343 307 350 1 347 341 329 351 321 295 271 233 197 185 190 215 146 21 334 272 218 212 210 197 227 231 234 291 298 301 298 292 293 299 300 280 180 168 167 190 203 216 205 211 228 243 250 256 271 267 262 265 274 284 292 294 299 302 308 319 316 310 319 359 347 342 326 320 311 317 311
140 97 87 53 53 36 26 10 351 9 340 5 347 344 10 3 29 37 26 11 356 350 345 360 4 354 342 334 350 54 67 16 12 14 18 7 350 312 209 210 221 214 224 236 266 288 293 293 297 301 328 7 333 231 220 200 204 227 235 242 249 246 239 246 274 286 280 279 272 266 280 289 298 305 298 308 331 326 318 313 301 301 303 299 297
100 89 84 75 101 99 31 85 81 15 357 317 305 293 45 50 52 47 33 13 346 353 354 22 45 35 32 48 63 57 46 11 15 23 17 13 6 351 308 293 297 301 312 288 234 232 245 280 338 17 26 26 8 354 352 179 208 230 274 304 287 273 265 254 231 232 264 273 284 280 272 281 284 280 290 305 320 304 303 301 302 300 299 297 293
115 106 98 89 88 78 56 129 120 101 71 8 33 42 53 57 70 78 73 3 42 45 14 20 22 41 46 55 67 59 39 8 7 12 14 9 4 349 337 316 305 290 303 305 329 6 34 39 40 42 30 41 16 356 343 346 2 27 15 314 289 278 253 240 247 245 236 242 253 265 269 270 271 284 298 302 307 325 334 316 316 305 298 292 296
108 106 100 110 122 134 159 162 86 87 81 24 19 33 36 68 69 58 53 48 23 67 53 30 32 35 24 39 68 61 43 13 14 5 10 1 351 332 307 310 309 317 305 15 52 43 39 59 65 65 63 56 26 359 0 334 337 344 287 283 288 278 279 277 259 244 246 230 246 256 266 271 282 302 337 357 347 313 298 298 305 305 301 298 294
96 96 93 107 127 136 145 86 87 112 111 78 354 343 2 46 64 93 102 78 31 17 32 33 41 44 45 62 72 68 45 21 11 10 3 2 340 319 295 275 287 285 344 47 40 54 52 39 54 75 61 46 12 352 346 335 338 338 321 313 303 303 299 301 118 99 56 351 308 293 290 296 300 272 273 303 313 314 321 315 316 303 302 301 301
62 76 85 66 57 88 109 112 116 100 110 132 158 119 56 65 54 60 79 75 71 56 52 48 49 68 58 32 62 72 49 19 18 15 7 1 349 338 327 321 303 335 28 54 49 49 51 49 40 50 57 46 8 346 345 339 343 341 335 320 310 307 305 305 2 48 334 242 237 244 255 273 282 296 320 321 325 288 304 315 302 303 297 302 304
81 81 85 85 60 37 59 86 93 102 120 117 99 81 77 69 74 70 74 74 71 67 65 68 68 56 40 35 44 62 51 27 24 21 17 6 349 340 333 315 339 11 350 30 64 51 57 56 56 49 41 30 358 350 353 342 346 340 329 321 312 304 305 360 341 336 331 318 313 309 305 301 307 320 348 2 13 48 325 307 321 323 307 306 309
68 75 81 88 84 61 66 68 69 73 76 80 78 76 70 80 78 74 75 78 77 80 83 76 84 88 92 78 73 68 46 27 21 22 24 19 4 331 352 12 14 6 2 24 57 65 84 63 64 59 57 24 9 0 356 353 342 335 333 318 313 316 355 353 337 323 326 325 319 325 321 339 358 352 356 16 22 8 2 333 323 325 328 328 321
78 73 68 66 69 69 71 71 67 68 72 72 72 67 69 75 82 80 74 68 61 55 69 77 73 71 68 68 59 62 73 50 20 20 28 27 17 14 40 29 29 32 45 46 59 30 66 94 66 48 32 22 9 4 357 4 344 328 327 323 332 334 346 331 320 315 312 307 300 306 335 8 353 344 1 15 353 332 310 278 298 304 284 295 301
86 88 88 84 83 86 78 76 74 68 65 71 71 54 29 57 69 72 73 70 76 48 47 91 96 95 83 74 57 49 64 67 42 33 40 39 33 29 44 32 4 3 64 49 61 39 9 56 59 34 22 8 358 349 342 342 330 310 315 345 324 307 322 313 316 315 299 298 316 334 19 349 3 329 31 22 357 324 320 286 261 263 264 286 303
85 91 95 102 105 97 91 86 87 91 89 88 83 86 70 39 39 61 72 88 95 90 71 63 75 83 89 91 94 80 58 68 62 46 53 52 52 45 42 28 6 321 12 50 43 76 50 45 36 13 5 353 344 339 327 324 306 282 299 293 299 323 328 304 292 297 327 344 339 340 323 307 336 289 49 340 289 273 287 307 301 274 244 279 281
92 93 99 113 114 107 106 106 98 102 104 101 107 112 120 114 88 65 90 108 110 115 110 120 120 115 108 97 96 99 100 92 76 72 58 64 57 52 42 33 11 18 12 39 37 35 32 49 1 354 335 334 337 324 311 305 291 253 284 296 295 302 289 285 281 316 356 343 341 344 345 342 340 353 4 15 353 348 327 311 302 301 315 312 293
108 104 102 99 90 92 99 103 108 112 112 114 116 117 118 135 141 149 174 159 141 139 160 164 146 143 138 133 131 126 186 215 11 64 65 60 58 51 40 27 25 13 13 31 21 36 2 349 328 323 326 318 312 302 292 283 268 278 290 291 295 292 272 274 349 13 349 344 350 1 352 355 356 357 357 345 329 316 310 306 317 338 328 310 317
108 109 99 95 104 111 111 115 133 141 132 136 128 133 125 132 118 144 133 101 83 64 102 170 163 163 151 142 153 167 172 163 147 117 68 49 40 44 33 21 9 9 2 8 10 354 320 299 305 309 306 303 292 290 283 257 253 261 271 290 302 293 322 44 19 353 0 12 8 351 342 348 341 340 329 307 298 295 297 312 325 318 326 338 332
106 112 119 105 101 110 106 106 82 91 133 146 139 156 168 170 152 171 175 125 82 58 13 40 52 61 71 132 159 180 175 148 150 165 171 102 64 46 36 18 17 4 12 34 3 347 342 308 293 291 290 288 292 285 309 294 285 287 286 283 311 345 49 19 15 35 32 6 352 346 338 336 339 329 321 329 320 317 351 355 351 343 344 326 320
105 108 111 131 130 124 117 124 111 51 127 180 153 20 45 112 104 37 42 71 116 164 160 104 93 126 121 356 99 140 110 111 98 73 43 40 35 43 30 20 15 6 10 5 354 340 323 314 299 294 290 288 285 274 258 277 291 293 332 46 349 1 53 13 56 55 32 7 342 338 323 328 326 331 337 327 339 5 9 358 348 335 325 329 322
120 118 114 114 96 87 69 98 131 159 319 53 43 42 47 50 57 50 36 38 46 20 34 39 28 14 32 55 358 73 65 47 26 15 17 21 41 42 36 25 12 359 1 355 333 313 304 299 292 273 258 273 277 287 178 221 261 4 358 47 349 352 41 8 60 54 30 351 327 315 311 340 339 337 339 342 355 356 357 347 333 325 332 328 321
123 124 118 105 90 86 115 184 196 155 105 81 67 41 18 58 86 73 32 4 45 57 45 55 41 31 47 27 50 80 74 66 36 15 19 27 45 35 31 17 353 345 359 343 321 310 310 300 281 287 36 323 318 356 14 11 29 14 1 15 338 11 30 16 37 24 0 339 326 330 342 347 329 333 341 339 354 344 343 324 314 323 327 313 316
138 133 121 116 129 140 183 105 37 9 126 115 99 76 56 52 34 89 108 46 43 55 76 89 74 34 80 47 17 59 96 105 127 64 57 55 55 56 42 4 1 338 332 326 301 287 297 298 295 341 29 330 339 15 17 356 14 5 359 356 350 17 13 40 39 5 346 322 326 349 351 328 337 342 344 347 339 334 322 322 331 334 326 336 330
145 142 143 99 41 352 161 122 103 75 18 75 104 118 116 69 62 64 81 98 82 70 79 96 84 55 92 112 62 61 90 112 108 66 41 36 38 20 5 344 348 356 357 357 342 321 307 303 337 353 27 350 4 10 16 1 9 4 355 352 354 3 18 39 27 356 329 328 352 351 338 349 341 344 347 340 330 327 329 337 329 329 337 335 326
105 74 76 95 73 42 47 64 91 69 75 28 64 114 116 116 112 59 63 68 64 70 73 64 69 81 77 101 134 91 79 73 78 59 42 34 24 2 345 333 321 333 336 31 313 304 298 315 325 1 27 350 15 7 15 355 3 4 2 357 347 7 14 17 7 327 325 352 359 339 347 340 335 340 333 319 322 321 332 330 336 336 329 328 332
98 97 96 109 94 67 96 98 48 47 96 163 188 274 218 174 154 146 69 61 76 78 55 44 54 78 91 82 81 119 143 157 152 118 70 47 4 345 321 301 293 296 332 295 292 298 307 328 355 11 14 7 359 7 11 353 2 358 354 347 345 12 3 6 343 325 354 10 348 337 332 332 337 327 314 323 323 326 328 328 337 332 330 333 334
93 89 138 127 114 116 101 89 132 143 7 1 347 180 223 289 136 149 169 169 111 52 90 76 81 82 76 90 119 122 132 144 140 120 154 187 255 281 352 305 297 280 216 251 286 291 290 309 6 11 1 353 350 14 347 348 353 346 346 1 1 351 9 2 329 358 3 353 334 324 327 332 324 321 326 325 330 327 329 333 336 335 337 335 327
106 85 60 52 124 130 123 161 141 90 46 214 233 286 333 122 312 221 183 187 188 185 182 172 176 235 171 104 117 141 143 143 168 194 198 208 200 238 259 298 304 319 143 230 234 251 271 327 42 13 343 345 9 344 353 355 344 356 3 350 336 7 357 331 337 5 345 322 310 320 332 322 320 330 334 333 332 333 332 332 334 337 334 335 342
126 134 143 121 136 131 124 84 61 79 97 11 306 315 327 324 255 221 253 301 296 178 180 165 164 183 183 15 168 161 161 191 206 210 211 149 92 262 301 284 288 292 307 218 215 230 274 26 30 10 19 338 352 11 31 359 13 1 342 337 357 3 325 324 333 321 312 311 323 326 317 324 342 340 339 333 333 332 334 337 339 349 351 348 342
157 147 157 174 95 110 102 97 98 58 43 341 337 316 297 260 283 306 312 270 194 262 96 133 142 118 185 189 142 152 237 238 238 346 27 92 165 258 266 276 286 290 278 297 303 306 283 258 99 4 269 306 23 26 17 9 351 345 347 352 353 328 322 316 299 289 312 332 322 322 347 350 349 345 344 342 344 343 343 347 350 345 340 331 324
43 49 101 120 129 94 70 163 130 102 211 296 279 289 286 299 303 307 301 286 317 325 208 163 173 171 190 198 161 174 219 250 276 242 159 121 187 240 239 242 255 264 274 280 327 338 12 34 344 288 41 38 42 31 13 4 3 355 347 344 332 320 338 331 331 338 344 330 343 357 352 351 344 337 338 338 343 346 351 346 338 329 327 325 324
112 83 70 62 51 18 178 179 161 187 197 217 224 224 230 255 269 265 229 254 250 242 249 278 295 276 211 125 150 192 211 202 0 26 0 342 298 238 231 243 246 256 14 50 14 28 21 19 9 357 17 45 62 47 33 4 358 339 346 334 328 341 346 347 344 345 338 343 340 347 335 329 347 5 3 358 356 357 346 338 330 329 324 321 318
148 151 118 117 190 201 300 245 181 206 203 221 219 222 206 226 243 245 267 280 276 277 271 263 267 54 70 70 71 50 12 0 352 357 354 324 313 320 317 328 340 346 355 34 41 23 18 13 10 3 357 346 9 13 12 3 348 343 335 331 339 338 340 339 342 341 343 347 345 348 16 20 17 7 0 358 353 343 336 333 333 328 328 326 324
169 140 142 167 182 208 202 219 218 212 216 211 241 236 245 258 259 286 294 288 291 285 290 282 68 93 83 88 72 54 22 344 339 328 318 310 296 289 311 347 356 357 354 358 22 20 16 9 358 345 343 352 354 0 359 351 349 339 341 337 331 334 337 341 345 348 350 343 340 5 29 20 13 4 353 347 338 332 329 325 317 323 322 319 318
170 148 161 159 172 216 215 210 213 199 196 234 216 246 260 222 227 232 244 259 266 282 312 315 94 106 95 106 100 96 31 326 307 288 285 289 292 318 2 358 348 7 12 2 20 22 6 342 347 342 341 350 358 356 347 337 334 333 332 336 337 335 334 327 332 339 347 352 8 23 14 14 14 1 352 345 340 338 331 328 326 321 320 323 323
181 166 169 167 176 193 213 212 201 183 186 209 229 239 241 289 313 283 261 247 267 274 271 281 105 120 131 147 150 184 266 292 233 237 245 267 325 4 353 351 349 5 20 11 360 359 359 356 344 344 347 352 353 348 340 334 344 336 336 336 338 333 344 7 16 17 8 0 352 347 341 345 3 6 350 343 336 331 326 321 317 316 316 317 311
186 178 174 175 179 187 203 212 195 197 203 204 219 191 197 206 222 248 263 265 244 212 229 235 253 143 143 192 217 235 243 223 308 351 4 354 343 340 330 331 348 8 7 4 354 356 353 348 340 337 352 346 351 352 345 346 3 353 342 336 328 14 36 20 9 8 6 3 354 349 343 340 334 328 322 318 322 320 316 312 310 311 314 310 311
185 187 181 183 185 191 196 202 204 185 202 164 181 208 204 226 253 259 237 236 235 236 253 279 274 282 262 187 200 300 348 352 1 358 349 355 344 335 329 331 343 359 1 345 355 350 344 341 344 339 335 343 355 356 356 358 353 356 347 352 42 48 23 18 9 358 1 3 357 347 341 338 336 329 322 317 313 311 308 309 311 311 309 310 309
198 196 193 188 187 193 194 189 196 206 205 198 208 215 207 203 214 220 226 237 240 234 254 320 336 356 338 321 313 296 282 317 306 317 316 319 327 335 337 343 347 349 343 348 352 350 347 346 339 343 344 350 1 4 349 351 354 355 0 52 56 42 33 10 6 1 10 10 355 343 335 331 326 322 318 317 315 311 308 307 306 306 305 305 303
202 204 202 195 194 187 197 185 183 200 203 206 214 226 221 204 197 194 206 188 82 64 20 330 314 300 279 268 266 316 358 341 342 340 349 354 347 333 335 344 357 346 350 25 7 349 339 344 349 353 350 348 345 351 346 340 347 338 35 65 51 48 38 6 356 17 20 353 341 337 334 329 322 320 321 319 314 308 306 306 306 307 308 308 308
215 212 207 200 197 190 187 190 184 187 199 211 212 219 228 227 209 202 168 160 193 231 247 238 237 252 297 330 353 358 0 358 0 356 350 338 332 333 352 0 354 349 341 347 345 339 326 330 334 335 335 337 340 331 340 326 335 324 68 81 60 64 28 348 17 22 14 341 338 336 326 319 312 311 310 310 306 305 303 302 304 303 303 304 305
219 216 208 200 200 189 183 187 185 187 201 211 205 206 204 208 228 183 195 221 172 157 224 227 224 226 278 291 319 333 358 351 338 339 336 332 332 329 332 336 339 342 334 322 320 322 325 324 334 328 328 324 330 338 336 341 333 344 77 94 98 87 42 25 45 34 325 325 341 325 321 316 313 311 307 303 302 300 300 299 300 302 303 304 304
216 211 198 197 206 199 188 184 191 195 192 201 206 190 188 212 209 206 161 150 190 203 176 196 237 257 280 292 315 316 331 337 347 334 328 325 317 318 316 321 324 322 318 316 314 310 305 300 306 312 320 319 323 316 317 308 351 73 98 114 149 154 85 96 78 37 8 359 332 318 313 311 310 305 302 299 297 299 299 301 303 303 304 304 303
209 211 211 204 195 194 193 191 190 191 187 189 182 187 188 180 184 184 191 189 202 207 206 197 194 210 229 228 249 298 315 335 324 296 279 293 305 306 304 309 315 320 311 307 302 294 298 321 326 327 325 323 317 322 316 339 91 108 127 145 159 138 76 73 82 99 33 323 313 314 307 309 306 303 302 303 305 303 304 304 304 303 303 304 304